Tracking 30417 objects as of 16-May-2025
HD Live streaming from Space Station
objects crossing your sky now

THORAD AGENA D DEB

Track THORAD AGENA D DEB now!
10-day predictions


NORAD ID: 5390
Int'l Code: 1970-025KV
Perigee: 911.9 km
Apogee: 984.9 km
Inclination: 100.1 °
Period: 103.9 minutes
Semi major axis: 7319 km
RCS: 0.0078 m2 (small)
Launch date: April 8, 1970
Source: United States (US)
Launch site: AIR FORCE WESTERN TEST RANGE (AFWTR)

Note: This is SATELLITE DEBRIS
Your satellite tracking list
Your tracking list is empty




NASA's NSSDC Master Catalog

Two Line Element Set (TLE):
1  5390U 70025KV  25134.59226017  .00000804  00000-0  73168-3 0  9998
2  5390 100.1137 146.6559 0049827 278.9519 204.5161 13.86400877754299
Source of the keplerian elements: AFSPC